User: anonymous   Login
Location: Newark
(5.8900°S, 42.6378°W)
Time: 00:59:22
(UTC+00:00)
Language:

Vanguard 2 Rocket - Orbit

View from above orbital plane
View from above orbital plane
View from above satellite
View from above satellite

Ground track
Ground track

The orbit data is extracted from the following two-line orbital elements,

1    12U 59001B   19262.09295110  .00000198  00000-0  12306-3 0  9998
2    12  32.8969 223.8724 1666714  84.0200 294.7000 11.44300775491351
Epoch (UTC): 19 September 2019 02:13:50
Eccentricity: 0.1666714
inclination: 32.8969°
perigee height: 554 km
apogee height: 3327 km
right ascension of ascending node: 223.8724°
argument of perigee: 84.0200°
revolutions per day: 11.44300775
mean anomaly at epoch: 294.7000°
orbit number at epoch: 49135

The dashed part of the orbit path shows where the satellite is in the earth's shadow,  

DLR